timestamp,surface_pressure_avg,surface_temp_avg,battery_voltage,lat,long
2022-01-15 00:09:00+00:00,293.9414,3.13,12.41,47.84626,-54.09684
2022-01-15 00:19:00+00:00,287.7347,3.17,12.41,47.84626,-54.09684
2022-01-15 00:29:00+00:00,282.168,3.19,12.41,47.84626,-54.09684
2022-01-15 00:39:00+00:00,281.1763,3.2,12.41,47.84626,-54.09684
2022-01-15 00:49:00+00:00,275.6281,3.2,12.41,47.84626,-54.09684
2022-01-15 00:59:00+00:00,268.3147,3.18,12.41,47.84626,-54.09684
2022-01-15 01:09:00+00:00,263.3231,3.14,12.41,47.84626,-54.09684
2022-01-15 01:19:00+00:00,257.3614,3.1,12.41,47.84626,-54.09684
2022-01-15 01:29:00+00:00,249.1347,3.01,12.41,47.84626,-54.09684
2022-01-15 01:39:00+00:00,242.3448,3.0,12.41,47.84626,-54.09684
2022-01-15 01:49:00+00:00,242.9148,3.01,12.41,47.84626,-54.09684
2022-01-15 01:59:00+00:00,242.8431,3.02,12.41,47.84626,-54.09684
2022-01-15 02:09:00+00:00,236.8381,3.03,12.41,47.84626,-54.09684
2022-01-15 02:19:01+00:00,232.5481,3.06,12.41,47.84626,-54.09684
2022-01-15 02:29:01+00:00,233.6431,3.06,12.41,47.84626,-54.09684
2022-01-15 02:39:01+00:00,233.0364,3.0,12.41,47.84626,-54.09684
2022-01-15 02:49:01+00:00,230.0631,3.0,12.41,47.84626,-54.09684
2022-01-15 02:59:01+00:00,232.7598,3.0,12.41,47.84626,-54.09684
2022-01-15 03:09:01+00:00,235.1198,3.0,12.41,47.84626,-54.09684
2022-01-15 03:19:00+00:00,229.9715,3.0,12.41,47.84626,-54.09684
2022-01-15 03:29:00+00:00,231.1531,3.0,12.41,47.84626,-54.09684
2022-01-15 03:39:00+00:00,238.5215,3.0,12.41,47.84626,-54.09684
2022-01-15 03:49:00+00:00,241.1514,3.0,12.41,47.84626,-54.09684
2022-01-15 03:59:00+00:00,236.7214,3.0,12.41,47.84626,-54.09684
2022-01-15 04:09:00+00:00,236.8181,3.0,12.41,47.84626,-54.09684
2022-01-15 04:19:00+00:00,240.6231,3.0,12.41,47.84626,-54.09684
2022-01-15 04:29:00+00:00,242.1598,3.0,12.41,47.84626,-54.09684
2022-01-15 04:39:00+00:00,240.9331,3.0,12.41,47.84626,-54.09684
2022-01-15 04:49:00+00:00,245.2647,3.0,12.41,47.84626,-54.09684
2022-01-15 04:59:00+00:00,251.6397,3.0,12.41,47.84626,-54.09684
2022-01-15 05:09:00+00:00,257.1381,3.01,12.41,47.84626,-54.09684
2022-01-15 05:19:01+00:00,255.8248,3.0,12.41,47.84626,-54.09684
2022-01-15 05:29:01+00:00,256.5948,3.0,12.41,47.84626,-54.09684
2022-01-15 05:39:01+00:00,260.8364,3.0,12.41,47.84626,-54.09684
2022-01-15 05:49:01+00:00,270.3498,3.09,12.41,47.84626,-54.09684
2022-01-15 05:59:01+00:00,269.4981,3.1,12.41,47.84626,-54.09684
2022-01-15 06:09:01+00:00,270.318,3.09,12.41,47.84626,-54.09684
2022-01-15 06:19:01+00:00,279.293,3.1,12.41,47.84626,-54.09684
2022-01-15 06:29:01+00:00,290.4897,3.08,12.41,47.84626,-54.09684
2022-01-15 06:39:01+00:00,293.2596,3.08,12.41,47.84626,-54.09684
2022-01-15 06:49:01+00:00,294.043,3.09,12.41,47.84626,-54.09684
2022-01-15 06:59:01+00:00,298.8564,3.1,12.41,47.84626,-54.09684
2022-01-15 07:09:01+00:00,311.0897,3.1,12.41,47.84626,-54.09684
2022-01-15 07:19:00+00:00,322.0197,3.1,12.41,47.84626,-54.09684
2022-01-15 07:29:00+00:00,331.0347,3.1,12.41,47.84626,-54.09684
2022-01-15 07:39:00+00:00,336.3346,3.18,12.41,47.84626,-54.09684
2022-01-15 07:49:00+00:00,343.0745,3.18,12.41,47.84626,-54.09684
2022-01-15 07:59:00+00:00,345.8562,3.18,12.41,47.84626,-54.09684
2022-01-15 08:09:00+00:00,344.5662,3.2,12.41,47.84626,-54.09684
2022-01-15 08:19:00+00:00,350.1047,3.2,12.41,47.84626,-54.09684
2022-01-15 08:29:00+00:00,357.6329,3.2,12.41,47.84626,-54.09684
2022-01-15 08:39:00+00:00,362.6229,3.2,12.41,47.84626,-54.09684
2022-01-15 08:49:00+00:00,360.0629,3.19,12.41,47.84626,-54.09684
2022-01-15 08:59:00+00:00,366.2646,3.2,12.41,47.84626,-54.09684
2022-01-15 09:09:00+00:00,376.8629,3.2,12.41,47.84626,-54.09684
2022-01-15 09:19:00+00:00,371.318,3.2,12.41,47.84626,-54.09684
2022-01-15 09:29:00+00:00,357.30300000000005,3.2,12.41,47.84626,-54.09684
2022-01-15 09:39:00+00:00,368.1597,3.2,12.41,47.84626,-54.09684
2022-01-15 09:49:00+00:00,372.6129,3.21,12.41,47.84626,-54.09684
2022-01-15 09:59:00+00:00,350.3296,3.2,12.41,47.84626,-54.09684
2022-01-15 10:09:00+00:00,350.5896,3.2,12.41,47.84626,-54.09684
2022-01-15 10:19:00+00:00,368.9879,3.28,12.41,47.84626,-54.09684
2022-01-15 10:29:00+00:00,362.3113,3.2,12.41,47.84626,-54.09684
2022-01-15 10:39:00+00:00,348.2096,3.2,12.41,47.84626,-54.09684
2022-01-15 10:49:00+00:00,362.8162,3.24,12.41,47.84626,-54.09684
2022-01-15 10:59:00+00:00,373.3629,3.2,12.41,47.84626,-54.09684
2022-01-15 11:09:00+00:00,358.3947,3.2,12.41,47.84626,-54.09684
2022-01-15 11:19:00+00:00,361.0513,3.2,12.41,47.84626,-54.09684
2022-01-15 11:29:00+00:00,373.943,3.2,12.41,47.84626,-54.09684
2022-01-15 11:39:00+00:00,365.8713,3.22,12.41,47.84626,-54.09684
2022-01-15 11:49:00+00:00,354.6846,3.2,12.41,47.84626,-54.09684
2022-01-15 11:59:00+00:00,363.8413,3.2,12.41,47.84626,-54.09684
2022-01-15 12:09:00+00:00,367.8646,3.2,12.41,47.84626,-54.09684
2022-01-15 12:19:00+00:00,351.3729,3.2,12.41,47.84626,-54.09684
2022-01-15 12:29:00+00:00,348.93300000000005,3.2,12.41,47.84626,-54.09684
2022-01-15 12:39:00+00:00,352.9863,3.25,12.41,47.84626,-54.09684
2022-01-15 12:49:00+00:00,339.1429,3.23,12.41,47.84626,-54.09684
2022-01-15 12:59:00+00:00,323.4413,3.2,12.41,47.84626,-54.09684
2022-01-15 13:09:00+00:00,324.698,3.2,12.41,47.84626,-54.09684
2022-01-15 13:19:00+00:00,319.3646,3.2,12.41,47.84626,-54.09684
2022-01-15 13:29:00+00:00,301.2214,3.2,12.41,47.84626,-54.09684
2022-01-15 13:39:00+00:00,293.138,3.2,12.41,47.84626,-54.09684
2022-01-15 13:49:00+00:00,294.9664,3.2,12.41,47.84626,-54.09684
2022-01-15 13:59:00+00:00,288.3247,3.2,12.41,47.84626,-54.09684
2022-01-15 14:09:00+00:00,278.0397,3.2,12.41,47.84626,-54.09684
2022-01-15 14:19:00+00:00,276.9647,3.2,12.41,47.84626,-54.09684
2022-01-15 14:29:00+00:00,274.5947,3.2,12.41,47.84626,-54.09684
2022-01-15 14:39:00+00:00,266.5331,3.2,12.41,47.84626,-54.09684
2022-01-15 14:49:00+00:00,266.2364,3.2,12.41,47.84626,-54.09684
2022-01-15 14:59:00+00:00,269.8531,3.22,12.41,47.84626,-54.09684
2022-01-15 15:09:00+00:00,262.1064,3.23,12.41,47.84626,-54.09684
2022-01-15 15:19:01+00:00,250.8314,3.26,12.41,47.84626,-54.09684
2022-01-15 15:29:01+00:00,247.0697,3.3,12.41,47.84626,-54.09684
2022-01-15 15:39:01+00:00,245.0681,3.3,12.41,47.84626,-54.09684
2022-01-15 15:49:01+00:00,242.9098,3.3,12.41,47.84626,-54.09684
2022-01-15 15:59:01+00:00,238.4814,3.3,12.41,47.84626,-54.09684
2022-01-15 16:09:01+00:00,239.3081,3.3,12.41,47.84626,-54.09684
2022-01-15 16:19:00+00:00,239.4681,3.3,12.49,47.84626,-54.09684
2022-01-15 16:29:00+00:00,236.4547,3.3,12.49,47.84626,-54.09684
2022-01-15 16:39:00+00:00,233.3531,3.3,12.49,47.84626,-54.09684
2022-01-15 16:49:00+00:00,235.1664,3.3,12.49,47.84626,-54.09684
2022-01-15 16:59:00+00:00,233.213,3.31,12.49,47.84626,-54.09684
2022-01-15 17:09:00+00:00,229.2481,3.34,12.49,47.84626,-54.09684
2022-01-15 17:19:00+00:00,233.3465,3.34,12.41,47.84626,-54.09684
2022-01-15 17:29:00+00:00,233.2314,3.34,12.41,47.84626,-54.09684
2022-01-15 17:39:00+00:00,228.1448,3.38,12.41,47.84626,-54.09684
2022-01-15 17:49:00+00:00,229.8697,3.38,12.41,47.84626,-54.09684
2022-01-15 17:59:00+00:00,248.5914,3.39,12.41,47.84626,-54.09684
2022-01-15 18:09:00+00:00,266.8114,3.35,12.41,47.84626,-54.09684
2022-01-15 18:19:00+00:00,273.5664,3.35,12.41,47.84626,-54.09684
2022-01-15 18:29:00+00:00,272.8581,3.39,12.41,47.84626,-54.09684
2022-01-15 18:39:00+00:00,280.993,3.4,12.41,47.84626,-54.09684
2022-01-15 18:49:00+00:00,280.2364,3.3,12.41,47.84626,-54.09684
2022-01-15 18:59:00+00:00,278.1898,3.39,12.41,47.84626,-54.09684
2022-01-15 19:09:00+00:00,267.2331,3.4,12.41,47.84626,-54.09684
2022-01-15 19:19:00+00:00,271.683,3.4,12.41,47.84626,-54.09684
2022-01-15 19:29:00+00:00,277.4231,3.4,12.41,47.84626,-54.09684
2022-01-15 19:39:00+00:00,279.5814,3.32,12.41,47.84626,-54.09684
2022-01-15 19:49:00+00:00,275.6697,3.4,12.41,47.84626,-54.09684
2022-01-15 19:59:00+00:00,282.2897,3.4,12.41,47.84626,-54.09684
2022-01-15 20:09:00+00:00,293.7764,3.4,12.41,47.84626,-54.09684
2022-01-15 20:19:00+00:00,303.1413,3.39,12.41,47.84626,-54.09684
2022-01-15 20:29:00+00:00,307.5313,3.39,12.41,47.84626,-54.09684
2022-01-15 20:39:00+00:00,320.4263,3.39,12.41,47.84626,-54.09684
2022-01-15 20:49:00+00:00,327.8596,3.39,12.41,47.84626,-54.09684
2022-01-15 20:59:00+00:00,329.4947,3.4,12.41,47.84626,-54.09684
2022-01-15 21:09:00+00:00,332.5847,3.4,12.41,47.84626,-54.09684
2022-01-15 21:19:00+00:00,338.3181,3.4,12.41,47.84626,-54.09684
2022-01-15 21:29:00+00:00,342.1046,3.4,12.41,47.84626,-54.09684
2022-01-15 21:39:00+00:00,343.218,3.4,12.41,47.84626,-54.09684
2022-01-15 21:49:00+00:00,340.8413,3.42,12.41,47.84626,-54.09684
2022-01-15 21:59:00+00:00,336.17800000000005,3.46,12.41,47.84626,-54.09684
2022-01-15 22:09:00+00:00,334.6313,3.46,12.41,47.84626,-54.09684
2022-01-15 22:19:00+00:00,346.0047,3.45,12.41,47.84626,-54.09684
2022-01-15 22:29:00+00:00,357.1179,3.42,12.41,47.84626,-54.09684
2022-01-15 22:39:00+00:00,360.3662,3.4,12.41,47.84626,-54.09684
2022-01-15 22:49:00+00:00,370.8746,3.41,12.41,47.84626,-54.09684
2022-01-15 22:59:00+00:00,377.8596,3.4,12.41,47.84626,-54.09684
2022-01-15 23:09:00+00:00,375.4612,3.41,12.41,47.84626,-54.09684
2022-01-15 23:19:00+00:00,355.9579,3.4,12.41,47.84626,-54.09684
2022-01-15 23:29:00+00:00,349.8813,3.4,12.41,47.84626,-54.09684
2022-01-15 23:39:00+00:00,344.4613,3.4,12.41,47.84626,-54.09684
2022-01-15 23:49:00+00:00,328.1230000000001,3.4,12.41,47.84626,-54.09684
2022-01-15 23:59:00+00:00,318.4547,3.4,12.41,47.84626,-54.09684
